This is the latest recevied weather packets stored in our database for station/object 4S6DRJ-13. If no packets are shown the sender has not sent any weather packets the latest 1 day(s).
| Time | Temp. | Humidity | Pressure | Rain* | Wind** | Luminosity | Snow |
|---|---|---|---|---|---|---|---|
| 1778118210 | 26.11° C | 92% | 1004.9 hPa | 0 mm | 0 m/s | 95 W/m² | - |
| 1778118149 | 26.11° C | 92% | 1004.9 hPa | 0 mm | 0 m/s | 89 W/m² | - |
| 1778118088 | 26.11° C | 92% | 1004.9 hPa | 0 mm | 0 m/s | 78 W/m² | - |
| 1778118027 | 26.11° C | 92% | 1004.8 hPa | 0 mm | 0 m/s | 70 W/m² | - |
| 1778117966 | 26.11° C | 92% | 1004.8 hPa | 0 mm | 0 m/s | 63 W/m² | - |
| 1778117905 | 26.11° C | 93% | 1004.8 hPa | 0 mm | 0 m/s | 59 W/m² | - |
| 1778117844 | 26.11° C | 93% | 1004.8 hPa | 0 mm | 0 m/s | 55 W/m² | - |
| 1778117783 | 25.56° C | 93% | 1004.8 hPa | 0 mm | 0 m/s | 52 W/m² | - |
| 1778117722 | 25.56° C | 93% | 1004.8 hPa | 0 mm | 0 m/s | 50 W/m² | - |
| 1778117661 | 25.56° C | 92% | 1004.7 hPa | 0 mm | 0 m/s | 50 W/m² | - |
| 1778117600 | 25.56° C | 93% | 1004.8 hPa | 0 mm | 0 m/s | 51 W/m² | - |
| 1778117539 | 25.56° C | 93% | 1004.7 hPa | 0 mm | 0.45 m/s, 96° | 54 W/m² | - |
| 1778117478 | 25.56° C | 93% | 1004.6 hPa | 0 mm | 0 m/s | 58 W/m² | - |
| 1778117356 | 25.56° C | 93% | 1004.6 hPa | 0 mm | 0.45 m/s, 93° | 73 W/m² | - |
| 1778117295 | 25.56° C | 93% | 1004.6 hPa | 0 mm | 0.89 m/s, 119° | 83 W/m² | - |
| 1778117234 | 25.56° C | 93% | 1004.5 hPa | 0 mm | 0.45 m/s, 132° | 91 W/m² | - |
| 1778117173 | 25.56° C | 93% | 1004.6 hPa | 0 mm | 0.45 m/s, 88° | 96 W/m² | - |
| 1778116990 | 25.56° C | 93% | 1004.4 hPa | 0 mm | 0.45 m/s, 124° | 112 W/m² | - |
| 1778116930 | 26.11° C | 93% | 1004.4 hPa | 0 mm | 0.89 m/s, 116° | 111 W/m² | - |
| 1778116808 | 25.56° C | 94% | 1004.5 hPa | 0 mm | 0 m/s | 106 W/m² | - |
| 1778116686 | 25.56° C | 93% | 1004.3 hPa | 0 mm | 0 m/s | 98 W/m² | - |
| 1778116625 | 25.56° C | 93% | 1004.2 hPa | 0 mm | 0 m/s | 94 W/m² | - |
| 1778116564 | 25.56° C | 93% | 1004.2 hPa | 0 mm | 0 m/s | 91 W/m² | - |
| 1778116442 | 25.56° C | 94% | 1004.3 hPa | 0 mm | 0 m/s | 84 W/m² | - |
| 1778116319 | 25.56° C | 94% | 1004.5 hPa | 0 mm | 0.89 m/s, 155° | 82 W/m² | - |
* Rain latest hour (hover to see other rain measurements)
** Current wind speed in m/s (hover to see current wind gust speed)